Regional Weather Roundup
Issued by NWS

Home | Current Version | Previous Version | Text Only | Print | Product List | Glossary On
Versions: 1 2 3 4 5 6 7 8 9 10 11 12 13 14 15 16 17 18 19 20 21 22 23 24 25 26 27 28 29 30 31 32 33 34 35 36 37 38 39 40 41 42 43 44 45 46 47 48 49 50
536
ASUS44 KJAN 211903
RWRMS

MISSISSIPPI HOURLY WEATHER ROUNDUP
NATIONAL WEATHER SERVICE JACKSON MS
100 PM CST FRI NOV 21 2014

NOTE: "FAIR: INDICATES FEW OR NO CLOUDS BELOW 12,000 FEET WITH NO
SIGNIFICANT WEATHER AND/OR OBSTRUCTIONS TO VISIBILITY.

MSZ001>002-007>008-010>013-018>021-025>028-034>036-212000-
NORTHWEST MISSISSIPPI

CITY           SKY/WX    TMP DP  RH WIND       PRES   REMARKS
CLARKSDALE     FAIR      61  52  72 E6        30.27F
CLEVELAND      MOCLDY    65  51  61 MISG      30.25F
GREENWOOD      SUNNY     71  45  39 SE13      30.25F
GREENVILLE     PTSUNNY   66  49  54 S9        30.24F
GRENADA        FAIR      63  48  59 E9        30.28F
OLIVE BRANCH   CLOUDY    52  41  66 E7        30.31F
OXFORD         FAIR      57  43  58 E3        30.31F
TUNICA         PTCLDY    57  46  67 E5        30.29F
$$

MSZ003>006-009-014>017-022>024-029>033-037>039-212000-
NORTHEAST MISSISSIPPI

CITY           SKY/WX    TMP DP  RH WIND       PRES   REMARKS
COLUMBUS AFB   SUNNY     64  44  48 E5        30.31F
CORINTH        CLOUDY    57  34  41 SE7       30.32F
GOLDN TRIANGLE MOSUNNY   64  46  52 CALM      30.31F
STARKVILLE     FAIR      66  45  45 SE7       30.29F
TUPELO         MOSUNNY   61  41  47 SE7       30.31F
$$

MSZ040-058-212000-
CENTRAL MISSISSIPPI

CITY           SKY/WX    TMP DP  RH WIND       PRES   REMARKS
JACKSON INTL   SUNNY     70  44  39 S14       30.26F
JACKSON HAWKNS SUNNY     70  43  37 SE15G23   30.26F
MERIDIAN KEY   SUNNY     87  43  21 E9        30.29F
MERIDIAN NAS   SUNNY     67  44  43 CALM      30.30F
RAYMOND        FAIR      72  66  83 SE9G16    30.26F
VICKSBURG      CLOUDY    72  45  37 S16       30.24F
$$

MSZ059>079-212000-
SOUTH MISSISSIPPI

CITY           SKY/WX    TMP DP  RH WIND       PRES   REMARKS
BROOKHAVEN     FAIR      66  45  45 E9G16     30.28F
HATTIESBURG    SUNNY     70  43  37 E13       30.29F
MCCOMB         CLOUDY    68  44  42 SE16G24   30.25F
NATCHEZ        CLOUDY    68  45  42 SE15G22   30.25F
PINE BELT      SUNNY     70  45  40 SE17      30.29F
$$

MSZ080>082-212000-
COASTAL MISSISSIPPI

CITY           SKY/WX    TMP DP  RH WIND       PRES   REMARKS
BAY ST LOUIS   MOSUNNY   68  46  45 SE16      30.28F
BILOXI         SUNNY     69  46  44 SE10      30.28F
PASCAGOULA     SUNNY     69  43  38 E8        30.28F
GULFPORT       MOSUNNY   68  49  50 SE16      30.28F
$$



USA.gov is the U.S. government's official web portal to all federal, state and local government web resources and services.